This is the latest recevied weather packets stored in our database for station/object DB2AG-13. If no packets are shown the sender has not sent any weather packets the latest 10 day(s).
| Time | Temp. | Humidity | Pressure | Rain* | Wind** | Luminosity | Snow |
|---|---|---|---|---|---|---|---|
| 1787896596 | 21.67° C | 59% | 1009.5 hPa | - | - | - | - |
| 1787896065 | 21.67° C | 59% | 1009.7 hPa | - | - | - | - |
| 1787895531 | 21.67° C | 59% | 1009.5 hPa | - | - | - | - |
| 1787894995 | 21.67° C | 58% | 1009.9 hPa | - | - | - | - |
| 1787894459 | 21.67° C | 58% | 1010.1 hPa | - | - | - | - |
| 1787893925 | 21.67° C | 57% | 1010.1 hPa | - | - | - | - |
| 1787893399 | 22.22° C | 57% | 1010.1 hPa | - | - | - | - |
| 1787892866 | 22.22° C | 57% | 1009.8 hPa | - | - | - | - |
| 1787892338 | 22.22° C | 56% | 1009.6 hPa | - | - | - | - |
| 1787891805 | 22.78° C | 55% | 1009.8 hPa | - | - | - | - |
| 1787891274 | 22.78° C | 54% | 1009.9 hPa | - | - | - | - |
| 1787889651 | 23.33° C | 53% | 1010.6 hPa | - | - | - | - |
| 1787889116 | 23.33° C | 52% | 1010.3 hPa | - | - | - | - |
| 1787888580 | 23.89° C | 52% | 1010.1 hPa | - | - | - | - |
| 1787888045 | 23.89° C | 52% | 1009.9 hPa | - | - | - | - |
| 1787887512 | 23.89° C | 52% | 1010.2 hPa | - | - | - | - |
| 1787886978 | 23.89° C | 52% | 1010.3 hPa | - | - | - | - |
| 1787886444 | 23.89° C | 52% | 1010.4 hPa | - | - | - | - |
| 1787885907 | 23.89° C | 51% | 1010.7 hPa | - | - | - | - |
| 1787884827 | 23.89° C | 52% | 1011.1 hPa | - | - | - | - |
| 1787884291 | 22.78° C | 57% | 1011.1 hPa | - | - | - | - |
| 1787883746 | 20.56° C | 63% | 1010.9 hPa | - | - | - | - |
| 1787883205 | 19.44° C | 63% | 1011.1 hPa | - | - | - | - |
| 1787882663 | 19.44° C | 63% | 1010.3 hPa | - | - | - | - |
| 1787882123 | 19.44° C | 62% | 1010.6 hPa | - | - | - | - |
* Rain since midnight (hover to see other rain measurements)
** Current wind speed in m/s (hover to see current wind gust speed)